Time,TemperatureF,DewpointF,PressureIn,WindDirection,WindDirectionDegrees,WindSpeedMPH,WindSpeedGustMPH,Humidity,HourlyPrecipIn,Conditions,Clouds,dailyrainin,SolarRadiationWatts/m^2,SoftwareType,DateUTC
2013-03-30 00:02:00,51.8,45.0,29.99,SSE,168,4.0,4.0,78,0.00,,,0.00,0,Custom,2013-03-30 05:02:00,
2013-03-30 00:07:00,51.8,45.0,29.99,ESE,102,0.0,3.0,78,0.00,,,0.00,0,Custom,2013-03-30 05:07:00,
2013-03-30 00:12:00,51.9,45.0,29.99,ESE,102,0.0,3.0,77,0.00,,,0.00,0,Custom,2013-03-30 05:12:00,
2013-03-30 00:17:00,52.1,45.0,29.98,ESE,105,1.0,3.0,77,0.00,,,0.00,0,Custom,2013-03-30 05:17:00,
2013-03-30 00:22:00,52.2,45.0,29.98,ESE,109,0.0,4.0,77,0.00,,,0.00,0,Custom,2013-03-30 05:22:00,
2013-03-30 00:27:00,52.4,45.0,29.98,ESE,117,0.0,2.0,76,0.00,,,0.00,0,Custom,2013-03-30 05:27:00,
2013-03-30 00:32:00,52.7,45.0,29.99,ESE,113,0.0,3.0,75,0.00,,,0.00,0,Custom,2013-03-30 05:32:00,
2013-03-30 00:37:00,52.6,45.0,29.98,South,174,0.0,4.0,75,0.00,,,0.00,0,Custom,2013-03-30 05:37:00,
2013-03-30 00:42:00,52.2,45.0,29.98,SE,134,0.0,2.0,75,0.00,,,0.00,0,Custom,2013-03-30 05:42:00,
2013-03-30 00:47:00,52.2,45.0,29.99,SE,140,0.0,2.0,76,0.00,,,0.00,0,Custom,2013-03-30 05:47:00,
2013-03-30 00:52:00,52.1,45.0,29.99,SE,140,0.0,0.0,75,0.00,,,0.00,0,Custom,2013-03-30 05:52:00,
2013-03-30 00:57:00,52.0,45.0,29.98,SSE,152,0.0,2.0,76,0.00,,,0.00,0,Custom,2013-03-30 05:57:00,
2013-03-30 01:02:00,52.2,45.0,29.98,SE,133,0.0,3.0,76,0.00,,,0.00,0,Custom,2013-03-30 06:02:00,
2013-03-30 01:07:00,52.3,45.0,29.98,SSE,147,0.0,2.0,76,0.00,,,0.00,0,Custom,2013-03-30 06:07:00,
2013-03-30 01:12:00,52.4,45.0,30.00,SSE,161,0.0,2.0,76,0.00,,,0.00,0,Custom,2013-03-30 06:12:00,
2013-03-30 01:17:00,52.6,45.0,29.98,SSE,158,2.0,3.0,76,0.00,,,0.00,0,Custom,2013-03-30 06:17:00,
2013-03-30 01:22:00,52.7,45.0,29.98,SE,130,0.0,3.0,76,0.00,,,0.00,0,Custom,2013-03-30 06:22:00,
2013-03-30 01:27:00,52.7,45.0,29.97,ESE,110,0.0,4.0,75,0.00,,,0.00,0,Custom,2013-03-30 06:27:00,
2013-03-30 01:32:00,52.5,45.0,29.98,ESE,109,0.0,3.0,75,0.00,,,0.00,0,Custom,2013-03-30 06:32:00,
2013-03-30 01:37:00,52.5,45.0,29.98,ESE,118,0.0,4.0,76,0.00,,,0.00,0,Custom,2013-03-30 06:37:00,
2013-03-30 01:42:00,52.5,45.0,29.98,SSE,160,2.0,3.0,76,0.00,,,0.00,0,Custom,2013-03-30 06:42:00,
2013-03-30 01:47:00,52.8,45.0,29.98,SSE,155,0.0,2.0,76,0.00,,,0.00,0,Custom,2013-03-30 06:47:00,
2013-03-30 01:52:00,53.0,45.0,29.98,East,88,0.0,3.0,75,0.00,,,0.00,0,Custom,2013-03-30 06:52:00,
2013-03-30 01:57:00,53.0,45.0,29.99,SSE,163,0.0,3.0,75,0.00,,,0.00,0,Custom,2013-03-30 06:57:00,
2013-03-30 02:02:00,53.2,45.0,29.98,ESE,109,0.0,4.0,74,0.00,,,0.00,0,Custom,2013-03-30 07:02:00,
2013-03-30 02:07:00,53.3,46.0,29.98,South,188,0.0,5.0,74,0.00,,,0.00,0,Custom,2013-03-30 07:07:00,
2013-03-30 02:12:00,53.3,45.0,29.98,South,182,0.0,4.0,74,0.00,,,0.00,0,Custom,2013-03-30 07:12:00,
2013-03-30 02:17:00,53.2,45.0,29.98,SE,141,0.0,5.0,74,0.00,,,0.00,0,Custom,2013-03-30 07:17:00,
2013-03-30 02:22:00,53.2,45.0,29.97,SE,131,0.0,5.0,74,0.00,,,0.00,0,Custom,2013-03-30 07:22:00,
2013-03-30 02:27:00,53.3,45.0,29.97,East,101,0.0,5.0,74,0.00,,,0.00,0,Custom,2013-03-30 07:27:00,
2013-03-30 02:32:00,53.2,45.0,29.96,East,99,0.0,6.0,74,0.00,,,0.00,0,Custom,2013-03-30 07:32:00,
2013-03-30 02:37:00,53.2,45.0,29.96,SE,125,0.0,6.0,74,0.00,,,0.00,0,Custom,2013-03-30 07:37:00,
2013-03-30 02:42:00,53.1,45.0,29.96,ESE,115,0.0,5.0,75,0.00,,,0.00,0,Custom,2013-03-30 07:42:00,
2013-03-30 02:47:00,53.2,45.0,29.96,ESE,102,0.0,6.0,74,0.00,,,0.00,0,Custom,2013-03-30 07:47:00,
2013-03-30 02:52:00,53.1,45.0,29.96,SSE,148,0.0,8.0,74,0.00,,,0.00,0,Custom,2013-03-30 07:52:00,
2013-03-30 02:57:00,52.9,45.0,29.96,ESE,122,0.0,3.0,75,0.00,,,0.00,0,Custom,2013-03-30 07:57:00,
2013-03-30 03:02:00,52.5,45.0,29.95,East,98,0.0,3.0,75,0.00,,,0.00,0,Custom,2013-03-30 08:02:00,
2013-03-30 03:07:00,52.5,45.0,29.95,ESE,122,0.0,3.0,75,0.00,,,0.00,0,Custom,2013-03-30 08:07:00,
2013-03-30 03:13:00,52.5,45.0,29.95,SE,124,0.0,6.0,75,0.00,,,0.00,0,Custom,2013-03-30 08:13:00,
2013-03-30 03:18:00,52.2,45.0,29.95,ESE,106,1.0,5.0,76,0.00,,,0.00,0,Custom,2013-03-30 08:18:00,
2013-03-30 03:23:00,51.8,45.0,29.95,East,99,0.0,5.0,76,0.00,,,0.00,0,Custom,2013-03-30 08:23:00,
2013-03-30 03:28:00,52.3,45.0,29.95,ESE,111,2.0,6.0,77,0.00,,,0.00,0,Custom,2013-03-30 08:28:00,
2013-03-30 03:33:00,52.4,45.0,29.95,ESE,114,0.0,5.0,76,0.00,,,0.00,0,Custom,2013-03-30 08:33:00,
2013-03-30 03:38:00,52.1,45.0,29.95,ESE,116,0.0,3.0,76,0.00,,,0.00,0,Custom,2013-03-30 08:38:00,
2013-03-30 03:43:00,52.0,45.0,29.95,ESE,116,0.0,0.0,76,0.00,,,0.00,0,Custom,2013-03-30 08:43:00,
2013-03-30 03:48:00,52.2,45.0,29.95,ESE,116,0.0,0.0,77,0.00,,,0.00,0,Custom,2013-03-30 08:48:00,
2013-03-30 03:53:00,52.4,46.0,29.95,SSE,154,0.0,3.0,77,0.00,,,0.00,0,Custom,2013-03-30 08:53:00,
2013-03-30 03:58:00,52.3,45.0,29.95,ESE,122,0.0,4.0,77,0.00,,,0.00,0,Custom,2013-03-30 08:58:00,
2013-03-30 04:03:00,52.3,45.0,29.95,SE,134,0.0,6.0,77,0.00,,,0.00,0,Custom,2013-03-30 09:03:00,
2013-03-30 04:08:00,52.4,45.0,29.94,ESE,103,3.0,4.0,77,0.00,,,0.00,0,Custom,2013-03-30 09:08:00,
2013-03-30 04:13:00,52.3,45.0,29.94,SE,129,0.0,4.0,77,0.00,,,0.00,0,Custom,2013-03-30 09:13:00,
2013-03-30 04:18:00,52.1,45.0,29.94,SE,129,0.0,1.0,77,0.00,,,0.00,0,Custom,2013-03-30 09:18:00,
2013-03-30 04:23:00,52.1,45.0,29.93,SE,128,4.0,4.0,77,0.00,,,0.00,0,Custom,2013-03-30 09:23:00,
2013-03-30 04:28:00,52.1,45.0,29.93,ESE,110,0.0,4.0,77,0.00,,,0.00,0,Custom,2013-03-30 09:28:00,
2013-03-30 04:33:00,52.0,45.0,29.92,East,85,0.0,4.0,77,0.00,,,0.00,0,Custom,2013-03-30 09:33:00,
2013-03-30 04:36:00,51.8,45.0,29.91,ESE,119,3.0,3.0,78,0.00,,,0.00,0,Custom,2013-03-30 09:36:00,
2013-03-30 04:41:00,51.5,45.0,29.91,ESE,116,2.0,3.0,78,0.00,,,0.00,0,Custom,2013-03-30 09:41:00,
2013-03-30 04:46:00,51.5,45.0,29.91,ESE,116,0.0,3.0,78,0.00,,,0.00,0,Custom,2013-03-30 09:46:00,
2013-03-30 04:51:00,51.5,45.0,29.91,ESE,105,0.0,5.0,78,0.00,,,0.00,0,Custom,2013-03-30 09:51:00,
2013-03-30 04:56:00,51.5,45.0,29.91,South,180,2.0,5.0,79,0.00,,,0.00,0,Custom,2013-03-30 09:56:00,
2013-03-30 05:01:00,51.4,45.0,29.91,SE,141,0.0,3.0,79,0.00,,,0.00,0,Custom,2013-03-30 10:01:00,
2013-03-30 05:07:00,51.3,45.0,29.91,South,182,0.0,3.0,79,0.00,,,0.00,0,Custom,2013-03-30 10:07:00,
2013-03-30 05:12:00,51.5,45.0,29.90,East,93,3.0,5.0,79,0.00,,,0.00,0,Custom,2013-03-30 10:12:00,
2013-03-30 05:17:00,51.5,45.0,29.91,ESE,107,0.0,4.0,79,0.00,,,0.00,0,Custom,2013-03-30 10:17:00,
2013-03-30 05:22:00,51.3,45.0,29.90,SE,126,2.0,4.0,79,0.00,,,0.00,0,Custom,2013-03-30 10:22:00,
2013-03-30 05:27:00,51.4,45.0,29.91,South,173,0.0,5.0,80,0.00,,,0.00,0,Custom,2013-03-30 10:27:00,
2013-03-30 05:32:00,51.3,45.0,29.90,South,174,0.0,2.0,80,0.00,,,0.00,0,Custom,2013-03-30 10:32:00,
2013-03-30 05:37:00,51.4,45.0,29.90,SE,143,0.0,1.0,80,0.00,,,0.00,0,Custom,2013-03-30 10:37:00,
2013-03-30 05:42:00,51.5,46.0,29.90,SE,135,0.0,5.0,80,0.00,,,0.00,0,Custom,2013-03-30 10:42:00,
2013-03-30 05:47:00,51.6,45.0,29.89,South,186,0.0,3.0,79,0.00,,,0.00,0,Custom,2013-03-30 10:47:00,
2013-03-30 05:52:00,51.6,45.0,29.89,SE,133,0.0,6.0,79,0.00,,,0.00,0,Custom,2013-03-30 10:52:00,
2013-03-30 05:57:00,51.6,46.0,29.89,SSE,165,0.0,9.0,80,0.00,,,0.00,0,Custom,2013-03-30 10:57:00,
2013-03-30 06:02:00,51.6,46.0,29.89,South,176,1.0,4.0,80,0.00,,,0.00,0,Custom,2013-03-30 11:02:00,
2013-03-30 06:07:00,51.7,46.0,29.89,ESE,110,3.0,3.0,80,0.00,,,0.00,0,Custom,2013-03-30 11:07:00,
2013-03-30 06:13:00,51.8,46.0,29.89,SSE,166,3.0,4.0,80,0.00,,,0.00,0,Custom,2013-03-30 11:13:00,
2013-03-30 06:18:00,51.8,46.0,29.89,SE,131,0.0,4.0,80,0.00,,,0.00,0,Custom,2013-03-30 11:18:00,
2013-03-30 06:23:00,51.8,46.0,29.89,SE,133,3.0,4.0,80,0.00,,,0.00,0,Custom,2013-03-30 11:23:00,
2013-03-30 06:28:00,52.0,46.0,29.89,SSW,212,3.0,4.0,80,0.00,,,0.00,0,Custom,2013-03-30 11:28:00,
2013-03-30 06:33:00,52.0,46.0,29.88,SE,130,0.0,3.0,80,0.00,,,0.00,0,Custom,2013-03-30 11:33:00,
2013-03-30 06:38:00,52.0,46.0,29.88,SE,143,0.0,6.0,80,0.00,,,0.00,0,Custom,2013-03-30 11:38:00,
2013-03-30 06:43:00,51.9,46.0,29.88,South,188,4.0,6.0,80,0.00,,,0.00,0,Custom,2013-03-30 11:43:00,
2013-03-30 06:48:00,51.8,46.0,29.88,SE,137,0.0,7.0,81,0.00,,,0.00,0,Custom,2013-03-30 11:48:00,
2013-03-30 06:53:00,51.7,46.0,29.88,SE,145,2.0,6.0,82,0.00,,,0.00,0,Custom,2013-03-30 11:53:00,
2013-03-30 06:58:00,51.5,47.0,29.88,South,175,0.0,8.0,83,0.00,,,0.00,0,Custom,2013-03-30 11:58:00,
2013-03-30 07:03:00,51.5,47.0,29.87,SSE,155,3.0,5.0,84,0.00,,,0.00,0,Custom,2013-03-30 12:03:00,
2013-03-30 07:08:00,51.2,47.0,29.87,South,186,0.0,5.0,84,0.00,,,0.00,0,Custom,2013-03-30 12:08:00,
2013-03-30 07:13:00,51.2,47.0,29.86,SE,124,5.0,6.0,85,0.00,,,0.00,0,Custom,2013-03-30 12:13:00,
2013-03-30 07:18:00,51.1,47.0,29.86,SSE,164,0.0,7.0,86,0.00,,,0.00,0,Custom,2013-03-30 12:18:00,
2013-03-30 07:23:00,51.1,47.0,29.86,South,188,0.0,5.0,86,0.01,,,0.01,0,Custom,2013-03-30 12:23:00,
2013-03-30 07:28:00,51.2,47.0,29.86,SSW,211,2.0,7.0,86,0.01,,,0.01,0,Custom,2013-03-30 12:28:00,
2013-03-30 07:33:00,51.2,47.0,29.87,SSW,192,4.0,8.0,87,0.01,,,0.01,0,Custom,2013-03-30 12:33:00,
2013-03-30 07:38:00,51.2,47.0,29.87,SE,128,0.0,6.0,87,0.01,,,0.01,0,Custom,2013-03-30 12:38:00,
2013-03-30 07:43:00,51.0,47.0,29.87,South,191,3.0,6.0,87,0.01,,,0.01,0,Custom,2013-03-30 12:43:00,
2013-03-30 07:48:00,51.1,47.0,29.87,South,190,5.0,7.0,88,0.01,,,0.01,0,Custom,2013-03-30 12:48:00,
2013-03-30 07:53:00,50.9,47.0,29.87,SSE,159,3.0,6.0,88,0.02,,,0.02,0,Custom,2013-03-30 12:53:00,
2013-03-30 07:58:00,50.9,48.0,29.87,SSW,193,6.0,10.0,88,0.02,,,0.02,0,Custom,2013-03-30 12:58:00,
2013-03-30 08:03:00,50.9,48.0,29.86,SSE,156,0.0,8.0,89,0.02,,,0.02,0,Custom,2013-03-30 13:03:00,
2013-03-30 08:08:00,51.0,48.0,29.85,South,174,0.0,14.0,89,0.02,,,0.02,0,Custom,2013-03-30 13:08:00,
2013-03-30 08:13:00,50.9,48.0,29.85,SE,130,1.0,10.0,89,0.02,,,0.02,0,Custom,2013-03-30 13:13:00,
2013-03-30 08:18:00,50.9,48.0,29.84,SW,229,4.0,15.0,90,0.02,,,0.02,10.14,Custom,2013-03-30 13:18:00,
2013-03-30 08:23:00,50.9,48.0,29.83,ENE,75,6.0,8.0,90,0.01,,,0.02,12.48,Custom,2013-03-30 13:23:00,
2013-03-30 08:28:00,51.0,48.0,29.83,SSE,161,11.0,11.0,90,0.01,,,0.02,16.38,Custom,2013-03-30 13:28:00,
2013-03-30 08:33:00,51.2,49.0,29.83,South,190,0.0,11.0,91,0.01,,,0.02,19.5,Custom,2013-03-30 13:33:00,
2013-03-30 08:38:00,51.6,49.0,29.82,South,187,8.0,11.0,91,0.01,,,0.02,27.69,Custom,2013-03-30 13:38:00,
2013-03-30 08:43:00,51.8,49.0,29.82,South,186,2.0,8.0,91,0.01,,,0.02,28.47,Custom,2013-03-30 13:43:00,
2013-03-30 08:48:00,52.1,49.0,29.82,South,182,4.0,7.0,90,0.01,,,0.02,34.32,Custom,2013-03-30 13:48:00,
2013-03-30 08:53:00,52.4,50.0,29.82,ESE,107,0.0,7.0,90,0.00,,,0.02,39.39,Custom,2013-03-30 13:53:00,
2013-03-30 08:58:00,52.7,50.0,29.81,ESE,123,7.0,8.0,90,0.00,,,0.02,53.82,Custom,2013-03-30 13:58:00,
2013-03-30 09:03:00,53.1,50.0,29.82,SSE,168,0.0,10.0,90,0.00,,,0.02,52.65,Custom,2013-03-30 14:03:00,
2013-03-30 09:08:00,53.3,50.0,29.83,East,81,0.0,4.0,89,0.00,,,0.02,50.31,Custom,2013-03-30 14:08:00,
2013-03-30 09:13:00,53.5,50.0,29.83,SSE,159,0.0,4.0,89,0.00,,,0.02,50.31,Custom,2013-03-30 14:13:00,
2013-03-30 09:18:00,53.6,50.0,29.83,SE,124,2.0,3.0,89,0.00,,,0.02,47.97,Custom,2013-03-30 14:18:00,
2013-03-30 09:23:00,53.7,50.0,29.83,SSW,197,5.0,7.0,88,0.00,,,0.02,37.05,Custom,2013-03-30 14:23:00,
2013-03-30 09:28:00,53.8,51.0,29.84,South,171,6.0,8.0,89,0.00,,,0.02,24.57,Custom,2013-03-30 14:28:00,
2013-03-30 09:33:00,53.7,51.0,29.85,South,183,4.0,6.0,89,0.00,,,0.02,21.84,Custom,2013-03-30 14:33:00,
2013-03-30 09:38:00,53.7,51.0,29.84,SSW,195,0.0,4.0,89,0.00,,,0.02,27.3,Custom,2013-03-30 14:38:00,
2013-03-30 09:43:00,53.8,51.0,29.85,South,178,3.0,7.0,89,0.00,,,0.02,34.71,Custom,2013-03-30 14:43:00,
2013-03-30 09:48:00,53.8,51.0,29.84,South,179,0.0,7.0,89,0.00,,,0.02,55.77,Custom,2013-03-30 14:48:00,
2013-03-30 09:53:00,53.9,51.0,29.84,South,181,3.0,6.0,89,0.00,,,0.02,55.38,Custom,2013-03-30 14:53:00,
2013-03-30 09:58:00,54.1,51.0,29.84,South,181,0.0,4.0,89,0.00,,,0.02,76.05,Custom,2013-03-30 14:58:00,
2013-03-30 10:03:00,54.5,51.0,29.85,South,181,0.0,3.0,88,0.00,,,0.02,68.25,Custom,2013-03-30 15:03:00,
2013-03-30 10:08:00,54.5,51.0,29.85,South,181,0.0,3.0,88,0.00,,,0.02,84.24,Custom,2013-03-30 15:08:00,
2013-03-30 10:13:00,55.2,51.0,29.85,South,181,0.0,0.0,87,0.00,,,0.02,88.53,Custom,2013-03-30 15:13:00,
2013-03-30 10:18:00,55.4,51.0,29.85,South,181,0.0,0.0,87,0.00,,,0.02,65.52,Custom,2013-03-30 15:18:00,
2013-03-30 10:23:00,55.6,51.0,29.85,South,181,0.0,0.0,86,0.00,,,0.02,84.24,Custom,2013-03-30 15:23:00,
2013-03-30 10:28:00,55.7,51.0,29.85,South,181,0.0,0.0,86,0.00,,,0.02,112.71,Custom,2013-03-30 15:28:00,
2013-03-30 10:33:00,56.0,52.0,29.85,South,181,2.0,0.0,85,0.00,,,0.02,140.4,Custom,2013-03-30 15:33:00,
2013-03-30 10:38:00,56.1,52.0,29.85,South,181,0.0,3.0,85,0.00,,,0.02,97.11,Custom,2013-03-30 15:38:00,
2013-03-30 10:43:00,56.2,52.0,29.85,South,181,0.0,0.0,85,0.00,,,0.02,74.88,Custom,2013-03-30 15:43:00,
2013-03-30 10:48:00,56.0,51.0,29.85,South,181,0.0,3.0,85,0.00,,,0.02,40.17,Custom,2013-03-30 15:48:00,
2013-03-30 10:53:00,56.0,52.0,29.85,South,181,0.0,0.0,85,0.00,,,0.02,41.34,Custom,2013-03-30 15:53:00,
2013-03-30 10:58:00,56.0,52.0,29.85,South,181,0.0,0.0,86,0.00,,,0.02,81.51,Custom,2013-03-30 15:58:00,
2013-03-30 11:03:00,56.2,52.0,29.85,South,181,0.0,0.0,87,0.00,,,0.02,62.01,Custom,2013-03-30 16:03:00,
2013-03-30 11:08:00,56.2,52.0,29.85,South,181,0.0,0.0,85,0.00,,,0.02,56.94,Custom,2013-03-30 16:08:00,
2013-03-30 11:13:00,57.1,53.0,29.85,South,181,0.0,0.0,85,0.00,,,0.02,192.27,Custom,2013-03-30 16:13:00,
2013-03-30 11:18:00,57.8,53.0,29.85,South,181,0.0,0.0,83,0.00,,,0.02,152.49,Custom,2013-03-30 16:18:00,
2013-03-30 11:23:00,58.2,52.0,29.85,South,181,0.0,0.0,81,0.00,,,0.02,142.74,Custom,2013-03-30 16:23:00,
2013-03-30 11:28:00,58.5,53.0,29.85,South,181,0.0,2.0,81,0.00,,,0.02,173.94,Custom,2013-03-30 16:28:00,
2013-03-30 11:33:00,58.3,52.0,29.85,South,180,3.0,3.0,80,0.00,,,0.02,122.07,Custom,2013-03-30 16:33:00,
2013-03-30 11:38:00,58.4,53.0,29.85,South,180,0.0,3.0,81,0.00,,,0.02,114.27,Custom,2013-03-30 16:38:00,
2013-03-30 11:43:00,58.4,53.0,29.85,South,180,0.0,0.0,82,0.00,,,0.02,104.91,Custom,2013-03-30 16:43:00,
2013-03-30 11:48:00,58.5,53.0,29.85,South,180,0.0,1.0,82,0.00,,,0.02,97.5,Custom,2013-03-30 16:48:00,
2013-03-30 11:53:00,58.9,53.0,29.85,South,180,0.0,2.0,81,0.00,,,0.02,199.29,Custom,2013-03-30 16:53:00,
2013-03-30 11:58:00,59.2,53.0,29.86,South,180,0.0,1.0,80,0.00,,,0.02,107.64,Custom,2013-03-30 16:58:00,
2013-03-30 12:03:00,58.8,53.0,29.87,South,182,0.0,3.0,81,0.00,,,0.02,49.92,Custom,2013-03-30 17:03:00,
2013-03-30 12:08:00,58.5,53.0,29.88,South,182,0.0,0.0,81,0.00,,,0.02,19.5,Custom,2013-03-30 17:08:00,
2013-03-30 12:13:00,58.3,53.0,29.87,South,182,0.0,0.0,82,0.00,,,0.03,30.03,Custom,2013-03-30 17:13:00,
2013-03-30 12:18:00,57.8,53.0,29.87,South,182,0.0,1.0,84,0.02,,,0.04,24.18,Custom,2013-03-30 17:18:00,
2013-03-30 12:23:00,57.4,53.0,29.86,South,182,0.0,0.0,85,0.04,,,0.06,27.69,Custom,2013-03-30 17:23:00,
2013-03-30 12:28:00,57.4,53.0,29.85,South,182,0.0,1.0,86,0.04,,,0.06,46.02,Custom,2013-03-30 17:28:00,
2013-03-30 12:33:00,57.5,54.0,29.85,South,182,0.0,1.0,87,0.04,,,0.06,107.25,Custom,2013-03-30 17:33:00,
2013-03-30 12:38:00,58.9,55.0,29.85,South,182,0.0,2.0,88,0.04,,,0.06,513.24,Custom,2013-03-30 17:38:00,
2013-03-30 12:43:00,60.0,55.0,29.85,South,182,0.0,2.0,85,0.04,,,0.06,196.56,Custom,2013-03-30 17:43:00,
2013-03-30 12:48:00,60.3,55.0,29.85,South,182,0.0,4.0,84,0.04,,,0.06,237.9,Custom,2013-03-30 17:48:00,
2013-03-30 12:53:00,59.9,54.0,29.85,South,182,0.0,3.0,81,0.04,,,0.06,127.14,Custom,2013-03-30 17:53:00,
2013-03-30 12:58:00,59.8,54.0,29.85,South,182,0.0,1.0,81,0.04,,,0.06,211.38,Custom,2013-03-30 17:58:00,
2013-03-30 13:03:00,60.7,55.0,29.85,South,182,0.0,2.0,82,0.04,,,0.06,165.75,Custom,2013-03-30 18:03:00,
2013-03-30 13:08:00,60.9,55.0,29.85,South,182,0.0,2.0,82,0.04,,,0.06,219.57,Custom,2013-03-30 18:08:00,
2013-03-30 13:13:00,61.5,55.0,29.84,South,182,0.0,0.0,79,0.04,,,0.06,252.72,Custom,2013-03-30 18:13:00,
2013-03-30 13:18:00,63.2,56.0,29.84,South,182,0.0,3.0,78,0.02,,,0.06,283.92,Custom,2013-03-30 18:18:00,
2013-03-30 13:23:00,62.4,55.0,29.84,South,182,2.0,0.0,76,0.00,,,0.06,222.69,Custom,2013-03-30 18:23:00,
2013-03-30 13:28:00,62.6,55.0,29.84,South,182,0.0,3.0,76,0.00,,,0.06,288.6,Custom,2013-03-30 18:28:00,
2013-03-30 13:33:00,63.5,56.0,29.82,South,182,0.0,5.0,78,0.00,,,0.06,505.44,Custom,2013-03-30 18:33:00,
2013-03-30 13:38:00,64.2,56.0,29.82,South,182,0.0,4.0,74,0.00,,,0.06,830.31,Custom,2013-03-30 18:38:00,
2013-03-30 13:43:00,63.9,54.0,29.82,South,184,0.0,6.0,70,0.00,,,0.07,517.92,Custom,2013-03-30 18:43:00,
2013-03-30 13:48:00,64.3,56.0,29.81,South,183,0.0,4.0,74,0.01,,,0.07,299.91,Custom,2013-03-30 18:48:00,
2013-03-30 13:53:00,64.4,56.0,29.81,SE,134,0.0,5.0,74,0.01,,,0.07,363.09,Custom,2013-03-30 18:53:00,
2013-03-30 13:58:00,65.3,57.0,29.81,South,183,4.0,4.0,74,0.01,,,0.07,398.19,Custom,2013-03-30 18:58:00,
2013-03-30 14:03:00,64.9,55.0,29.81,South,183,0.0,6.0,70,0.01,,,0.07,204.75,Custom,2013-03-30 19:03:00,
2013-03-30 14:08:00,63.7,55.0,29.81,South,182,0.0,4.0,73,0.01,,,0.07,153.27,Custom,2013-03-30 19:08:00,
2013-03-30 14:13:00,63.3,54.0,29.80,South,182,0.0,3.0,71,0.01,,,0.07,280.41,Custom,2013-03-30 19:13:00,
2013-03-30 14:18:00,63.6,54.0,29.80,South,182,0.0,3.0,72,0.01,,,0.07,283.14,Custom,2013-03-30 19:18:00,
2013-03-30 14:23:00,65.9,56.0,29.80,South,183,0.0,2.0,70,0.01,,,0.07,416.52,Custom,2013-03-30 19:23:00,
2013-03-30 14:28:00,65.9,56.0,29.80,South,184,0.0,4.0,69,0.01,,,0.07,542.88,Custom,2013-03-30 19:28:00,
2013-03-30 14:33:00,66.7,55.0,29.80,South,182,0.0,2.0,68,0.01,,,0.07,819,Custom,2013-03-30 19:33:00,
2013-03-30 14:38:00,66.4,56.0,29.79,ESE,111,0.0,3.0,69,0.01,,,0.07,520.65,Custom,2013-03-30 19:38:00,
2013-03-30 14:43:00,65.7,54.0,29.79,ESE,111,0.0,0.0,66,0.01,,,0.07,174.72,Custom,2013-03-30 19:43:00,
2013-03-30 14:48:00,65.0,55.0,29.79,ESE,111,0.0,0.0,69,0.00,,,0.07,131.43,Custom,2013-03-30 19:48:00,
2013-03-30 14:53:00,64.7,55.0,29.79,ESE,111,0.0,0.0,70,0.00,,,0.07,171.99,Custom,2013-03-30 19:53:00,
2013-03-30 14:58:00,65.5,55.0,29.78,ESE,111,0.0,0.0,69,0.00,,,0.07,171.21,Custom,2013-03-30 19:58:00,
2013-03-30 15:03:00,64.4,55.0,29.79,SE,137,0.0,3.0,69,0.00,,,0.07,154.83,Custom,2013-03-30 20:03:00,
2013-03-30 15:08:00,64.2,54.0,29.79,SE,137,0.0,0.0,69,0.00,,,0.07,118.17,Custom,2013-03-30 20:08:00,
2013-03-30 15:13:00,64.4,55.0,29.79,SE,137,0.0,0.0,70,0.00,,,0.07,126.75,Custom,2013-03-30 20:13:00,
2013-03-30 15:18:00,64.7,55.0,29.78,SE,137,0.0,0.0,70,0.00,,,0.07,189.54,Custom,2013-03-30 20:18:00,
2013-03-30 15:23:00,64.7,55.0,29.78,SE,137,0.0,0.0,69,0.00,,,0.07,140.01,Custom,2013-03-30 20:23:00,
2013-03-30 15:28:00,64.9,54.0,29.78,SE,137,0.0,0.0,69,0.00,,,0.07,166.53,Custom,2013-03-30 20:28:00,
2013-03-30 15:33:00,64.4,55.0,29.78,SE,145,0.0,4.0,70,0.00,,,0.07,85.8,Custom,2013-03-30 20:33:00,
2013-03-30 15:38:00,63.7,54.0,29.78,SE,145,2.0,3.0,71,0.00,,,0.07,81.12,Custom,2013-03-30 20:38:00,
2013-03-30 15:43:00,63.5,54.0,29.78,SE,145,0.0,4.0,71,0.00,,,0.07,80.34,Custom,2013-03-30 20:43:00,
2013-03-30 15:48:00,63.7,54.0,29.78,SE,145,0.0,3.0,71,0.00,,,0.07,110.76,Custom,2013-03-30 20:48:00,
2013-03-30 15:53:00,63.6,54.0,29.78,SE,145,0.0,3.0,72,0.00,,,0.07,76.83,Custom,2013-03-30 20:53:00,
2013-03-30 15:58:00,63.5,54.0,29.78,SE,145,0.0,4.0,72,0.00,,,0.07,43.68,Custom,2013-03-30 20:58:00,
2013-03-30 16:03:00,63.3,55.0,29.78,SE,145,0.0,0.0,74,0.00,,,0.07,45.63,Custom,2013-03-30 21:03:00,
2013-03-30 16:08:00,63.2,54.0,29.78,SE,145,0.0,0.0,72,0.00,,,0.07,71.37,Custom,2013-03-30 21:08:00,
2013-03-30 16:13:00,63.2,55.0,29.78,SE,145,0.0,3.0,74,0.00,,,0.07,81.12,Custom,2013-03-30 21:13:00,
2013-03-30 16:18:00,63.2,55.0,29.78,SE,145,0.0,1.0,74,0.00,,,0.07,62.01,Custom,2013-03-30 21:18:00,
2013-03-30 16:23:00,63.2,55.0,29.78,SE,145,0.0,0.0,73,0.00,,,0.07,51.48,Custom,2013-03-30 21:23:00,
2013-03-30 16:28:00,63.2,54.0,29.78,SE,145,0.0,2.0,73,0.00,,,0.07,64.35,Custom,2013-03-30 21:28:00,
2013-03-30 16:34:00,63.1,54.0,29.78,SE,145,0.0,0.0,73,0.00,,,0.07,54.6,Custom,2013-03-30 21:34:00,
2013-03-30 16:39:00,63.1,54.0,29.77,SE,145,0.0,0.0,73,0.00,,,0.07,74.1,Custom,2013-03-30 21:39:00,
2013-03-30 16:44:00,63.3,54.0,29.77,SE,145,0.0,0.0,73,0.00,,,0.07,112.32,Custom,2013-03-30 21:44:00,
2013-03-30 16:49:00,63.8,55.0,29.77,SE,145,0.0,0.0,72,0.00,,,0.07,143.13,Custom,2013-03-30 21:49:00,
2013-03-30 16:54:00,64.8,56.0,29.76,SE,145,0.0,2.0,73,0.00,,,0.07,480.48,Custom,2013-03-30 21:54:00,
2013-03-30 16:59:00,66.6,55.0,29.76,SSE,147,0.0,4.0,66,0.00,,,0.07,441.87,Custom,2013-03-30 21:59:00,
2013-03-30 17:04:00,68.0,55.0,29.76,SSE,147,0.0,4.0,64,0.00,,,0.07,242.97,Custom,2013-03-30 22:04:00,
2013-03-30 17:09:00,67.3,54.0,29.76,SSE,147,2.0,4.0,63,0.00,,,0.07,104.13,Custom,2013-03-30 22:09:00,
2013-03-30 17:14:00,66.6,55.0,29.76,SSE,147,0.0,2.0,65,0.00,,,0.07,130.26,Custom,2013-03-30 22:14:00,
2013-03-30 17:19:00,65.6,54.0,29.76,SSE,147,0.0,4.0,65,0.00,,,0.07,152.49,Custom,2013-03-30 22:19:00,
2013-03-30 17:24:00,65.5,54.0,29.76,SSE,147,0.0,1.0,65,0.00,,,0.07,81.12,Custom,2013-03-30 22:24:00,
2013-03-30 17:29:00,65.2,54.0,29.76,SSE,147,0.0,0.0,66,0.00,,,0.07,63.96,Custom,2013-03-30 22:29:00,
2013-03-30 17:34:00,65.3,54.0,29.76,SSE,147,0.0,0.0,67,0.00,,,0.07,92.82,Custom,2013-03-30 22:34:00,
2013-03-30 17:39:00,65.3,54.0,29.76,SSE,163,0.0,3.0,66,0.00,,,0.07,86.97,Custom,2013-03-30 22:39:00,
2013-03-30 17:44:00,65.3,54.0,29.76,SSE,163,0.0,0.0,68,0.00,,,0.07,71.37,Custom,2013-03-30 22:44:00,
2013-03-30 17:49:00,65.3,54.0,29.76,SSE,163,0.0,0.0,67,0.00,,,0.07,61.23,Custom,2013-03-30 22:49:00,
2013-03-30 17:54:00,65.1,55.0,29.76,SSE,163,0.0,1.0,69,0.00,,,0.07,53.82,Custom,2013-03-30 22:54:00,
2013-03-30 17:59:00,64.8,55.0,29.76,SSE,163,0.0,1.0,70,0.00,,,0.07,72.54,Custom,2013-03-30 22:59:00,
2013-03-30 18:04:00,64.8,55.0,29.76,SSE,163,0.0,0.0,70,0.00,,,0.07,53.43,Custom,2013-03-30 23:04:00,
2013-03-30 18:09:00,64.7,55.0,29.76,SSE,163,0.0,0.0,70,0.00,,,0.07,68.25,Custom,2013-03-30 23:09:00,
2013-03-30 18:14:00,64.7,55.0,29.76,SSE,163,0.0,0.0,70,0.00,,,0.07,75.66,Custom,2013-03-30 23:14:00,
2013-03-30 18:19:00,64.6,54.0,29.76,East,96,0.0,2.0,69,0.00,,,0.07,55.77,Custom,2013-03-30 23:19:00,
2013-03-30 18:24:00,64.9,54.0,29.76,ENE,77,0.0,3.0,68,0.00,,,0.07,60.06,Custom,2013-03-30 23:24:00,
2013-03-30 18:29:00,65.3,54.0,29.76,ENE,77,1.0,3.0,68,0.00,,,0.07,44.85,Custom,2013-03-30 23:29:00,
2013-03-30 18:34:00,64.7,54.0,29.76,ENE,67,1.0,4.0,68,0.00,,,0.07,40.95,Custom,2013-03-30 23:34:00,
2013-03-30 18:39:00,64.4,54.0,29.76,ENE,67,0.0,3.0,69,0.00,,,0.07,34.71,Custom,2013-03-30 23:39:00,
2013-03-30 18:44:00,64.4,54.0,29.76,ENE,67,0.0,2.0,69,0.00,,,0.07,32.37,Custom,2013-03-30 23:44:00,
2013-03-30 18:49:00,63.9,54.0,29.76,ENE,67,2.0,2.0,69,0.00,,,0.07,28.86,Custom,2013-03-30 23:49:00,
2013-03-30 18:54:00,63.7,54.0,29.76,ENE,70,0.0,3.0,70,0.00,,,0.07,25.74,Custom,2013-03-30 23:54:00,
2013-03-30 18:59:00,63.2,54.0,29.76,ENE,70,0.0,2.0,71,0.00,,,0.07,24.18,Custom,2013-03-30 23:59:00,
2013-03-30 19:04:00,62.8,53.0,29.76,ENE,70,0.0,0.0,71,0.00,,,0.07,20.28,Custom,2013-03-31 00:04:00,
2013-03-30 19:09:00,62.6,53.0,29.77,ENE,70,0.0,0.0,72,0.00,,,0.07,18.72,Custom,2013-03-31 00:09:00,
2013-03-30 19:14:00,62.0,53.0,29.77,ENE,65,4.0,6.0,73,0.00,,,0.07,15.6,Custom,2013-03-31 00:14:00,
2013-03-30 19:19:00,61.0,53.0,29.76,ENE,74,0.0,6.0,75,0.00,,,0.07,12.87,Custom,2013-03-31 00:19:00,
2013-03-30 19:24:00,60.5,53.0,29.77,ENE,66,0.0,5.0,76,0.00,,,0.07,9.36,Custom,2013-03-31 00:24:00,
2013-03-30 19:29:00,60.1,53.0,29.77,ENE,66,0.0,2.0,77,0.00,,,0.07,0,Custom,2013-03-31 00:29:00,
2013-03-30 19:34:00,59.7,53.0,29.77,ENE,76,0.0,4.0,77,0.00,,,0.07,0,Custom,2013-03-31 00:34:00,
2013-03-30 19:39:00,59.3,53.0,29.78,ENE,75,0.0,2.0,79,0.00,,,0.07,0,Custom,2013-03-31 00:39:00,
2013-03-30 19:44:00,58.9,52.0,29.78,ENE,75,0.0,0.0,79,0.00,,,0.07,0,Custom,2013-03-31 00:44:00,
2013-03-30 19:50:00,58.3,52.0,29.78,ENE,75,0.0,0.0,80,0.00,,,0.07,0,Custom,2013-03-31 00:50:00,
2013-03-30 19:55:00,57.9,52.0,29.78,ENE,75,0.0,0.0,81,0.00,,,0.07,0,Custom,2013-03-31 00:55:00,
2013-03-30 20:00:00,57.7,52.0,29.79,ENE,75,0.0,0.0,82,0.00,,,0.07,0,Custom,2013-03-31 01:00:00,
2013-03-30 20:05:00,57.4,52.0,29.79,ENE,75,0.0,0.0,83,0.00,,,0.07,0,Custom,2013-03-31 01:05:00,
2013-03-30 20:10:00,57.5,52.0,29.79,ENE,75,0.0,0.0,82,0.00,,,0.07,0,Custom,2013-03-31 01:10:00,
2013-03-30 20:15:00,56.4,51.0,29.79,ENE,75,0.0,0.0,82,0.00,,,0.07,0,Custom,2013-03-31 01:15:00,
2013-03-30 20:20:00,56.0,51.0,29.79,ENE,75,0.0,0.0,84,0.00,,,0.07,0,Custom,2013-03-31 01:20:00,
2013-03-30 20:25:00,55.9,51.0,29.79,ENE,75,0.0,0.0,84,0.00,,,0.07,0,Custom,2013-03-31 01:25:00,
2013-03-30 20:30:00,56.6,52.0,29.80,ENE,75,0.0,0.0,85,0.00,,,0.07,0,Custom,2013-03-31 01:30:00,
2013-03-30 20:35:00,56.4,52.0,29.80,ENE,75,0.0,0.0,85,0.00,,,0.07,0,Custom,2013-03-31 01:35:00,
2013-03-30 20:40:00,56.2,52.0,29.80,ENE,75,0.0,0.0,85,0.00,,,0.07,0,Custom,2013-03-31 01:40:00,
2013-03-30 20:45:00,56.1,52.0,29.80,ENE,75,0.0,0.0,85,0.00,,,0.07,0,Custom,2013-03-31 01:45:00,
2013-03-30 20:50:00,56.0,52.0,29.80,ENE,75,1.0,0.0,86,0.00,,,0.07,0,Custom,2013-03-31 01:50:00,
2013-03-30 20:55:00,56.5,52.0,29.80,ENE,75,0.0,1.0,86,0.00,,,0.07,0,Custom,2013-03-31 01:55:00,
2013-03-30 21:00:00,56.9,53.0,29.80,ENE,75,0.0,0.0,86,0.00,,,0.07,0,Custom,2013-03-31 02:00:00,
2013-03-30 21:05:00,56.9,53.0,29.80,ENE,75,0.0,1.0,85,0.00,,,0.07,0,Custom,2013-03-31 02:05:00,
2013-03-30 21:10:00,57.0,53.0,29.80,ENE,75,0.0,1.0,85,0.00,,,0.07,0,Custom,2013-03-31 02:10:00,
2013-03-30 21:15:00,56.6,52.0,29.80,ENE,75,0.0,1.0,85,0.00,,,0.07,0,Custom,2013-03-31 02:15:00,
2013-03-30 21:20:00,56.1,52.0,29.80,ENE,75,0.0,0.0,85,0.00,,,0.07,0,Custom,2013-03-31 02:20:00,
2013-03-30 21:25:00,55.6,51.0,29.80,ENE,75,0.0,0.0,86,0.00,,,0.07,0,Custom,2013-03-31 02:25:00,
2013-03-30 21:30:00,55.6,52.0,29.80,ENE,75,0.0,1.0,87,0.00,,,0.07,0,Custom,2013-03-31 02:30:00,
2013-03-30 21:35:00,55.5,52.0,29.80,ENE,75,0.0,1.0,87,0.00,,,0.07,0,Custom,2013-03-31 02:35:00,
2013-03-30 21:40:00,55.3,51.0,29.80,ENE,75,0.0,0.0,87,0.00,,,0.07,0,Custom,2013-03-31 02:40:00,
2013-03-30 21:45:00,55.3,52.0,29.81,ENE,74,0.0,0.0,88,0.00,,,0.07,0,Custom,2013-03-31 02:45:00,
2013-03-30 21:50:00,55.3,52.0,29.81,ENE,75,0.0,0.0,88,0.00,,,0.07,0,Custom,2013-03-31 02:50:00,
2013-03-30 21:55:00,55.4,52.0,29.81,ENE,75,0.0,0.0,89,0.00,,,0.07,0,Custom,2013-03-31 02:55:00,
2013-03-30 22:00:00,55.9,53.0,29.81,ENE,75,0.0,1.0,90,0.00,,,0.07,0,Custom,2013-03-31 03:00:00,
2013-03-30 22:05:00,55.7,52.0,29.81,ENE,74,0.0,0.0,88,0.01,,,0.08,0,Custom,2013-03-31 03:05:00,
2013-03-30 22:10:00,55.1,52.0,29.81,ENE,75,0.0,0.0,88,0.01,,,0.08,0,Custom,2013-03-31 03:10:00,
2013-03-30 22:15:00,54.8,52.0,29.80,ENE,75,0.0,0.0,89,0.01,,,0.08,0,Custom,2013-03-31 03:15:00,
2013-03-30 22:20:00,54.6,51.0,29.81,ENE,75,0.0,1.0,89,0.02,,,0.09,0,Custom,2013-03-31 03:20:00,
2013-03-30 22:25:00,54.7,52.0,29.81,ENE,75,0.0,1.0,90,0.02,,,0.09,0,Custom,2013-03-31 03:25:00,
2013-03-30 22:30:00,53.9,51.0,29.81,ENE,74,0.0,0.0,89,0.02,,,0.09,0,Custom,2013-03-31 03:30:00,
2013-03-30 22:35:00,54.0,51.0,29.81,ENE,75,0.0,0.0,90,0.02,,,0.09,0,Custom,2013-03-31 03:35:00,
2013-03-30 22:40:00,54.0,51.0,29.81,ENE,75,0.0,0.0,91,0.02,,,0.09,0,Custom,2013-03-31 03:40:00,
2013-03-30 22:45:00,53.3,51.0,29.81,ENE,75,0.0,0.0,91,0.02,,,0.09,0,Custom,2013-03-31 03:45:00,
2013-03-30 22:50:00,52.8,50.0,29.81,ENE,75,0.0,0.0,91,0.02,,,0.09,0,Custom,2013-03-31 03:50:00,
2013-03-30 22:55:00,53.1,51.0,29.82,ENE,74,0.0,0.0,91,0.02,,,0.09,0,Custom,2013-03-31 03:55:00,
2013-03-30 23:00:00,53.1,51.0,29.81,ENE,75,0.0,0.0,91,0.02,,,0.09,0,Custom,2013-03-31 04:00:00,
2013-03-30 23:01:00,53.1,51.0,29.81,ENE,75,0.0,0.0,91,0.02,,,0.09,0,Custom,2013-03-31 04:01:00,
2013-03-30 23:03:00,53.1,51.0,29.82,ENE,75,0.0,0.0,91,0.02,,,0.09,0,Custom,2013-03-31 04:03:00,
2013-03-30 23:08:00,52.9,51.0,29.82,ENE,74,0.0,0.0,91,0.01,,,0.09,0,Custom,2013-03-31 04:08:00,
2013-03-30 23:13:00,53.2,51.0,29.82,ENE,75,0.0,0.0,92,0.01,,,0.09,0,Custom,2013-03-31 04:13:00,
2013-03-30 23:18:00,53.4,51.0,29.82,ENE,75,0.0,0.0,92,0.00,,,0.09,0,Custom,2013-03-31 04:18:00,
2013-03-30 23:23:00,53.7,52.0,29.81,ENE,75,0.0,0.0,92,0.00,,,0.09,0,Custom,2013-03-31 04:23:00,
2013-03-30 23:28:00,53.4,51.0,29.82,ENE,74,1.0,0.0,92,0.00,,,0.09,0,Custom,2013-03-31 04:28:00,
2013-03-30 23:33:00,53.6,51.0,29.81,ENE,75,0.0,1.0,93,0.00,,,0.09,0,Custom,2013-03-31 04:33:00,
2013-03-30 23:38:00,53.6,52.0,29.81,ENE,75,0.0,0.0,93,0.00,,,0.09,0,Custom,2013-03-31 04:38:00,
2013-03-30 23:43:00,53.8,52.0,29.81,ENE,75,0.0,0.0,93,0.00,,,0.09,0,Custom,2013-03-31 04:43:00,
2013-03-30 23:48:00,53.3,51.0,29.81,ENE,75,0.0,0.0,92,0.00,,,0.09,0,Custom,2013-03-31 04:48:00,
2013-03-30 23:53:00,53.5,51.0,29.81,ENE,75,0.0,1.0,92,0.00,,,0.09,0,Custom,2013-03-31 04:53:00,
2013-03-30 23:58:00,52.8,50.0,29.81,ENE,75,0.0,0.0,92,0.00,,,0.09,0,Custom,2013-03-31 04:58:00,